This is the latest recevied weather packets stored in our database for station/object SP9POL-3. If no packets are shown the sender has not sent any weather packets the latest 10 day(s).
| Time | Temp. | Humidity | Pressure | Rain* | Wind** | Luminosity | Snow |
|---|---|---|---|---|---|---|---|
| 1777451184 | 5.56° C | 36% | 1026.9 hPa | - | - | - | - |
| 1777450982 | 5.56° C | 36% | 1026.9 hPa | - | - | - | - |
| 1777449301 | 5.56° C | 36% | 1026.7 hPa | - | - | - | - |
| 1777447621 | 5° C | 34% | 1026.5 hPa | - | - | - | - |
| 1777445941 | 5° C | 40% | 1026.4 hPa | - | - | - | - |
| 1777444261 | 3.89° C | 43% | 1026.3 hPa | - | - | - | - |
| 1777442581 | 3.33° C | 46% | 1026.2 hPa | - | - | - | - |
| 1777440901 | 3.33° C | 48% | 1026.1 hPa | - | - | - | - |
| 1777439221 | 2.78° C | 48% | 1026 hPa | - | - | - | - |
| 1777437541 | 2.22° C | 49% | 1025.9 hPa | - | - | - | - |
| 1777435861 | 2.22° C | 48% | 1025.6 hPa | - | - | - | - |
| 1777434180 | 2.22° C | 48% | 1025.4 hPa | - | - | - | - |
| 1777432500 | 2.22° C | 47% | 1025.2 hPa | - | - | - | - |
| 1777430820 | 2.22° C | 45% | 1025.2 hPa | - | - | - | - |
| 1777429140 | 2.22° C | 44% | 1025.1 hPa | - | - | - | - |
| 1777427460 | 2.78° C | 44% | 1025 hPa | - | - | - | - |
| 1777425780 | 3.33° C | 43% | 1024.9 hPa | - | - | - | - |
| 1777424100 | 3.33° C | 41% | 1024.8 hPa | - | - | - | - |
| 1777422420 | 3.33° C | 40% | 1024.9 hPa | - | - | - | - |
| 1777420740 | 3.89° C | 39% | 1024.8 hPa | - | - | - | - |
| 1777419060 | 3.89° C | 36% | 1024.9 hPa | - | - | - | - |
| 1777417379 | 3.89° C | 35% | 1024.8 hPa | - | - | - | - |
| 1777415699 | 4.44° C | 33% | 1024.6 hPa | - | - | - | - |
| 1777414165 | 5° C | 32% | 1024.6 hPa | - | - | - | - |
| 1777414019 | 5° C | 32% | 1024.6 hPa | - | - | - | - |
* Rain since midnight (hover to see other rain measurements)
** Current wind speed in m/s (hover to see current wind gust speed)